Home   Weather   Sochi   Past weeks

Flag for Russia Past Weather in Sochi, Russia — Yesterday and Last 2 Weeks

Now
54 °F

Thundershowers. Overcast.


Feels Like: 51 °F
Forecast: 47 / 62 °F
Wind: 8 mph from Northeast

Location: Adler

Current Time: Sep 28, 2016 at 9:53:36 AM

Latest Report: Sep 28, 2016 at 9:00 AM


Visibility: 5 mi

Pressure: 30.12 "Hg

Humidity: 94%

Dew Point: 52 °F

Location of SochiLocation

Past Weather in Sochi — Graph

°F

Sochi Temperature Yesterday

Maximum temperature yesterday: 68 °F (at 12:30 PM)
Minimum temperature yesterday: 54 °F (at 12:00 AM)
Average temperature yesterday: 57 °F

High & Low Weather Summary for the Past Weeks

 TemperatureHumidityPressure
High90 °F (Sep 20, 11:30 AM)100% (Sep 21, 8:00 AM)30.15 "Hg (Sep 21, 8:00 AM)
Low52 °F (Sep 24, 5:00 AM)22% (Sep 20, 12:30 PM)29.59 "Hg (Sep 20, 7:00 PM)
Average65 °F73%29.94 "Hg
* Reported Sep 13 8:00 AM — Sep 28 8:30 AM, Sochi, Weather by CustomWeather, © 2016

Note: Actual official high and low records may vary slightly from our data, if they occured in-between our weather recording intervals... More about our weather records

Advertising

Sochi Weather History for the Previous 24 Hours

Scroll right to see more
 ConditionsComfort  
Time TempWeatherWind HumidityBarometerVisibility
8:30 AM
Wed, Sep 28
54 °FThundershowers. Overcast.10 mph94%30.12 "Hg4 mi
8:00 AM54 °FThundershowers. Overcast.10 mph94%30.12 "Hg6 mi
7:30 AM54 °FThundershowers. Overcast.3 mph94%30.12 "Hg2 mi
7:00 AM55 °FThunderstorms. Partly sunny.13 mph82%30.12 "HgN/A
6:30 AM55 °FThundershowers. Scattered clouds.8 mph82%30.09 "HgN/A
6:00 AM54 °FThundershowers. Passing clouds.3 mph88%30.12 "HgN/A
5:00 AM54 °FSprinkles. Overcast.6 mph88%30.12 "HgN/A
4:30 AM54 °FSprinkles. Overcast.8 mph94%30.12 "HgN/A
4:00 AM54 °FSprinkles. Overcast.8 mph94%30.12 "HgN/A
3:00 AM55 °FPassing clouds.10 mph88%30.12 "HgN/A
2:30 AM55 °FPassing clouds.13 mph88%30.12 "HgN/A
2:00 AM55 °FPassing clouds.13 mph88%30.12 "HgN/A
1:30 AM55 °FSprinkles. Overcast.13 mph88%30.12 "Hg6 mi
1:00 AM54 °FSprinkles. Mostly cloudy.13 mph94%30.15 "Hg1 mi
12:30 AM55 °FSprinkles. Mostly cloudy.10 mph88%30.15 "HgN/A
12:00 AM55 °FOvercast.13 mph88%30.12 "HgN/A
11:30 PM
Tue, Sep 27
55 °FPassing clouds.10 mph88%30.12 "HgN/A
11:00 PM55 °FPassing clouds.13 mph88%30.12 "HgN/A
10:30 PM55 °FPassing clouds.13 mph88%30.15 "HgN/A
10:00 PM55 °FThundershowers. Overcast.8 mph94%30.15 "HgN/A
9:30 PM55 °FThundershowers. Overcast.8 mph94%30.15 "Hg3 mi
9:00 PM55 °FThundershowers. Overcast.13 mph88%30.15 "Hg6 mi
8:30 PM55 °FThundershowers. Mostly cloudy.10 mph88%30.15 "HgN/A
8:00 PM57 °FThundershowers. Mostly cloudy.10 mph82%30.15 "HgN/A
7:30 PM57 °FMostly cloudy.10 mph82%30.12 "HgN/A
7:00 PM57 °FPassing clouds.10 mph82%30.12 "HgN/A
6:30 PM57 °FPassing clouds.13 mph82%30.12 "HgN/A
6:00 PM57 °FScattered clouds.10 mph82%30.12 "HgN/A
5:30 PM57 °FScattered clouds.13 mph82%30.12 "HgN/A
5:00 PM59 °FScattered clouds.13 mph77%30.12 "HgN/A
4:30 PM57 °FBroken clouds.10 mph88%30.12 "HgN/A
4:00 PM59 °FPartly sunny.13 mph82%30.12 "HgN/A
3:30 PM57 °FSprinkles. Mostly cloudy.10 mph88%30.15 "HgN/A
3:00 PM55 °FSprinkles. Overcast.10 mph94%30.15 "HgN/A
2:30 PM55 °FSprinkles. Overcast.13 mph94%30.15 "Hg6 mi
2:00 PM54 °FCool.17 mph100%30.12 "Hg1 mi
1:30 PM55 °FSprinkles. Mostly cloudy.13 mph88%30.12 "Hg6 mi
1:00 PM57 °FSprinkles. Mostly cloudy.13 mph82%30.12 "Hg5 mi
12:30 PM68 °FBroken clouds.10 mph56%30.12 "HgN/A
12:00 PM66 °FThundershowers. Broken clouds.8 mph56%30.12 "HgN/A
11:30 AM66 °FBroken clouds.10 mph56%30.09 "HgN/A
11:00 AM63 °FThundershowers. Broken clouds.8 mph73%30.12 "HgN/A
10:30 AM61 °FThundershowers. Broken clouds.13 mph77%30.12 "HgN/A
10:00 AM59 °FBroken clouds.15 mph77%30.12 "HgN/A
9:30 AM59 °FBroken clouds.15 mph72%30.12 "HgN/A
9:00 AM61 °FBroken clouds.8 mph68%30.09 "HgN/A
Weather by CustomWeather, © 2016

See weather overviewHow to use our weather pages